Location: Central Coast
(33.3208°S, 151.2336°E)
Time: 01:21:08
(UTC+11:00)

Hubble Space Telescope - Visible Passes

Search period start: 19 December 2017 00:00
Search period end: 29 December 2017 00:00
Orbit: 537 x 541 km, 28.5° (Epoch: 17 December)

Date Brightness Start Highest point End Pass type
(mag) Time Alt. Az. Time Alt. Az. Time Alt. Az.
19 Dec 3.5 02:48:10 11° ENE 02:48:10 11° ENE 02:48:23 10° ENE visible
19 Dec 1.2 04:23:32 24° WNW 04:25:34 42° N 04:29:32 10° ENE visible
20 Dec 1.2 04:13:54 30° NW 04:15:18 41° N 04:19:15 10° ENE visible
21 Dec 1.3 04:04:22 37° NNW 04:05:01 39° N 04:08:56 10° ENE visible
22 Dec 1.4 03:55:02 36° N 03:55:02 36° N 03:58:36 10° ENE visible
23 Dec 2.1 03:45:54 26° NNE 03:45:54 26° NNE 03:48:14 10° NE visible
24 Dec 3.0 03:37:00 14° NE 03:37:00 14° NE 03:37:49 10° NE visible
24 Dec 2.8 05:13:21 10° NW 05:14:51 12° NNW 05:16:20 10° N visible
26 Dec 3.0 21:57:18 10° NW 21:58:00 13° NNW 21:58:00 13° NNW visible
27 Dec 2.1 21:46:48 10° NW 21:49:14 24° NNW 21:49:14 24° NNW visible
28 Dec 1.6 21:36:20 10° NW 21:40:02 31° NNE 21:40:14 31° NNE visible
